GFSSE_sfc_rhum_102.txt.gz
RH
90 94 95 96 95 94 92 93 92 90 91 93 94 92 87 88 90 91 91 91 91 87 83 81 83 83 80 80 85 85 84 86 86 85 87 84 81 81 83 88 88 81 86
90 93 95 95 96 93 92 92 93 91 90 92 94 94 91 90 90 90 91 91 91 87 82 81 81 80 78 84 85 86 87 87 88 88 87 84 81 81 84 90 88 84 87
92 93 93 92 96 94 92 91 92 91 90 90 93 94 93 91 91 91 91 91 91 86 81 79 80 81 81 85 87 89 88 90 90 87 85 76 80 81 84 90 89 86 86
88 91 93 95 96 94 92 92 92 90 90 90 90 92 92 92 92 91 92 94 90 87 81 79 79 80 86 88 89 91 92 92 92 92 90 85 76 81 82 85 85 85 85
90 92 95 96 96 94 94 93 93 91 91 92 91 90 91 92 92 92 94 94 90 87 83 78 79 86 88 90 92 93 93 94 94 93 95 88 85 80 80 84 85 86 88
96 95 97 97 97 95 94 94 95 94 93 93 92 91 91 92 92 93 94 92 90 87 84 82 86 90 90 93 94 94 94 94 94 95 96 88 88 80 81 85 90 90 89
97 97 97 97 96 95 94 95 96 95 94 94 94 93 92 92 94 94 93 91 90 89 86 88 91 91 92 94 93 93 94 94 94 96 96 93 91 81 82 86 89 90 90
96 97 96 95 96 95 95 96 96 96 95 94 94 94 93 93 94 94 93 93 92 92 91 93 92 92 92 93 92 94 94 92 92 96 96 96 89 82 82 85 90 90 90
97 98 97 96 95 96 96 96 97 96 96 96 95 95 95 95 95 94 93 92 90 90 93 93 92 92 92 92 92 94 94 94 95 96 95 96 86 82 79 85 87 89 90
99 97 92 93 98 98 97 97 97 97 97 97 96 96 96 96 95 93 93 92 90 90 93 92 93 92 92 93 92 94 95 94 96 96 96 96 82 80 81 82 85 88 90
98 99 92 90 89 94 98 98 97 97 98 98 97 97 98 98 97 95 95 94 91 92 93 93 93 93 94 94 93 93 96 98 97 97 98 93 80 80 81 83 88 88 88
97 99 91 89 90 93 94 96 95 93 97 98 98 98 99 99 98 97 96 94 92 92 93 94 95 95 96 99 97 96 98 98 98 98 97 92 81 82 81 85 88 86 86
93 96 98 92 92 95 90 90 90 88 98 98 96 97 99 99 99 99 99 98 98 94 98 97 98 98 97 98 99 98 98 98 97 97 95 92 82 84 81 89 84 85 84
93 94 96 98 98 98 90 86 84 86 94 98 96 89 99 99 99 100 99 99 98 99 97 98 99 98 98 98 98 98 98 98 99 98 96 92 86 83 80 84 83 83 84
82 90 96 97 98 98 95 87 84 82 84 82 84 88 96 98 98 99 99 98 99 99 98 99 99 99 99 99 98 97 98 98 98 99 99 93 89 84 83 80 80 81 83
68 81 93 96 96 97 95 90 86 82 81 84 88 88 96 95 96 99 98 98 99 99 99 99 99 99 99 98 98 98 97 98 98 98 99 99 98 90 88 81 78 78 80
31 58 92 94 93 96 96 97 96 89 83 87 91 91 90 97 97 98 98 98 97 99 99 99 99 99 99 98 98 98 96 96 97 97 98 99 99 96 96 93 84 82 80
24 38 70 85 94 93 93 96 97 93 89 89 93 92 93 95 97 99 98 97 98 98 98 98 98 98 99 98 99 98 98 96 97 97 98 99 100 96 96 90 89 87 84
22 25 40 84 94 95 92 94 94 96 96 98 97 95 95 97 97 97 96 96 98 98 98 97 98 96 98 99 97 98 98 97 97 96 97 98 99 98 96 94 89 90 87
22 24 26 48 89 94 94 94 96 96 95 97 96 97 97 97 97 97 92 95 96 97 97 98 98 97 95 96 96 97 98 98 97 97 96 97 98 98 95 92 91 88 89
26 27 29 37 81 95 93 95 94 93 93 97 95 96 97 96 97 96 96 95 95 96 95 96 97 98 98 96 98 99 99 99 99 98 96 97 98 97 94 92 91 87 81
89 83 50 48 70 94 88 80 90 89 93 92 94 96 96 96 96 96 97 98 98 98 98 97 97 97 98 97 98 98 100 99 99 98 96 97 97 96 93 91 91 90 83
91 90 84 89 73 92 89 89 99 97 99 99 97 96 95 96 96 95 96 97 98 97 97 97 96 96 98 98 95 95 99 98 98 98 98 97 97 98 95 89 90 88 89
83 81 84 86 96 88 92 91 86 89 92 89 88 89 94 96 96 95 96 97 97 97 97 96 96 94 92 98 97 94 90 92 96 99 99 99 97 96 96 90 91 89 89
77 73 79 84 85 85 94 90 88 93 86 87 90 94 97 98 97 97 97 97 98 97 96 96 96 96 95 94 94 96 96 95 93 96 99 99 99 97 95 92 90 90 87
75 82 80 81 83 86 92 92 91 89 89 96 94 95 98 97 98 97 97 97 97 96 96 96 96 96 96 96 94 96 90 90 96 95 97 95 95 99 97 94 92 90 88

GFSSE_sfc_rhum_105.txt.gz
RH
61 68 95 94 93 92 92 91 93 94 91 89 87 87 87 88 89 90 91 92 91 87 84 82 82 85 80 80 86 87 86 87 88 86 85 84 82 79 82 87 85 60 86
61 70 95 94 93 92 92 91 92 94 93 91 88 88 88 89 90 90 91 91 89 86 83 81 82 82 82 85 87 86 86 88 89 85 86 83 81 80 84 87 82 72 86
67 73 80 94 93 92 92 92 91 92 94 93 91 89 88 89 90 90 91 91 89 86 82 81 80 79 82 86 87 88 88 89 89 88 86 66 67 82 84 88 88 87 87
64 69 74 96 94 93 92 92 92 90 92 94 93 91 90 89 89 91 92 93 90 87 83 79 79 82 86 87 89 89 90 91 91 90 60 59 59 83 83 85 84 85 85
65 67 72 96 95 94 93 93 93 92 92 93 94 92 90 89 90 91 93 93 89 86 84 79 81 87 88 89 90 91 92 93 93 74 60 60 58 74 82 83 85 86 84
69 68 90 96 95 94 94 94 94 93 93 92 93 92 91 90 90 92 94 92 89 87 84 83 86 89 90 91 92 93 94 94 91 57 62 70 69 79 81 85 87 89 88
73 74 80 96 96 94 93 94 94 93 93 92 92 93 92 92 92 94 94 93 91 88 86 87 91 89 91 92 93 94 95 94 62 64 64 64 78 83 82 87 90 90 89
75 79 79 94 96 95 94 95 94 93 93 94 94 93 93 94 94 93 94 93 93 91 91 92 92 91 92 93 94 95 95 92 73 69 66 63 78 82 82 86 88 91 91
80 81 83 86 88 98 97 97 96 94 93 94 94 94 94 96 95 93 93 93 92 93 94 93 91 92 93 94 94 95 95 92 68 65 69 66 88 83 81 86 89 92 91
88 84 84 87 89 88 88 97 97 96 95 95 94 95 96 96 95 94 94 93 92 93 94 92 91 92 93 94 94 95 95 94 67 66 68 68 89 82 81 84 86 91 91
88 87 86 89 90 90 90 86 96 96 96 96 93 95 94 74 77 76 82 92 92 92 94 92 93 93 94 94 94 95 95 65 68 67 76 90 87 80 81 85 89 90 91
77 92 87 85 88 89 86 86 84 84 82 80 78 78 73 78 74 72 82 96 94 93 95 94 94 94 92 68 70 92 71 76 70 75 73 92 88 79 83 86 89 90 90
63 72 87 86 87 87 84 82 81 85 87 89 86 82 79 79 82 75 71 79 78 89 73 85 84 73 72 75 79 68 72 78 67 75 79 94 88 78 81 86 87 86 88
67 64 74 86 87 90 80 79 76 79 86 86 81 86 89 91 92 79 70 81 82 75 78 79 81 79 76 76 77 83 88 88 82 80 90 98 94 80 81 87 86 83 85
56 66 76 79 88 87 87 77 75 81 83 83 77 82 85 88 92 88 85 85 82 81 78 80 80 78 77 77 80 79 84 83 85 84 91 99 98 89 86 87 90 84 83
22 48 72 78 87 85 85 81 76 76 77 79 78 75 82 80 91 94 90 91 86 82 79 78 79 80 77 80 81 79 76 85 87 92 96 96 99 99 87 89 86 80 81
18 20 54 68 67 79 82 85 81 71 74 78 78 84 83 84 90 92 92 94 92 86 84 82 82 84 83 84 85 82 78 79 80 91 96 96 97 99 99 96 87 83 81
18 22 27 52 75 83 80 83 84 75 74 72 81 85 87 86 90 94 94 90 92 95 87 87 90 90 88 87 88 84 84 83 92 91 89 94 98 96 99 98 97 91 87
23 23 25 36 60 82 84 82 82 83 78 79 78 83 88 88 89 94 92 91 91 96 95 93 94 90 90 90 86 85 83 85 94 92 79 96 98 98 99 98 98 96 90
58 56 36 32 40 72 82 85 88 84 84 84 85 88 89 87 90 91 91 94 92 96 97 96 96 95 90 90 90 88 86 84 90 97 87 92 96 97 98 99 96 84 92
65 68 67 67 47 49 69 85 89 90 82 89 86 87 87 88 88 89 93 91 93 92 92 96 96 97 98 94 96 94 92 88 89 97 90 90 91 94 97 97 96 63 70
66 68 69 68 68 56 53 64 69 74 81 83 87 86 84 85 89 87 90 92 92 92 93 93 95 97 96 96 96 97 99 99 98 95 96 93 89 87 94 96 94 67 59
64 67 65 66 71 72 69 65 74 83 89 94 94 92 87 85 90 88 88 90 93 92 93 94 94 89 97 98 91 94 99 97 97 95 96 91 90 94 88 95 95 78 64
62 65 65 68 71 69 72 70 73 74 78 77 76 80 89 85 87 88 88 89 92 90 94 94 89 92 91 97 97 91 88 80 88 95 94 96 87 91 93 96 96 81 66
60 63 67 70 72 72 73 75 74 73 68 66 72 80 89 92 87 89 90 89 91 94 94 93 94 94 93 94 95 95 90 93 90 86 94 97 98 96 94 95 94 91 68
58 64 69 74 74 75 76 80 82 75 74 73 76 82 88 90 91 93 92 94 93 94 93 89 93 93 94 94 93 90 90 88 85 88 86 83 92 96 96 97 97 94 72

GFSSE_sfc_rhum_108.txt.gz
RH
34 46 94 92 91 91 92 94 93 91 88 87 87 88 88 88 90 91 92 92 89 85 79 80 86 85 80 78 83 86 87 89 90 88 86 84 81 80 82 86 83 54 85
33 52 95 93 91 91 91 93 94 92 89 89 87 88 89 89 90 91 92 91 90 85 83 82 82 82 79 86 89 88 87 89 88 89 88 82 79 80 81 84 81 65 86
40 53 70 93 92 91 91 92 93 93 92 90 89 88 89 90 90 92 92 91 89 86 83 80 80 80 83 88 86 87 88 87 87 90 87 51 66 82 81 86 88 86 86
39 46 55 95 92 92 91 91 93 93 93 91 90 90 90 90 90 91 92 92 90 87 84 79 79 80 86 87 88 88 90 89 89 89 52 43 45 83 82 84 85 86 86
40 42 52 93 93 92 90 91 92 94 95 94 92 91 90 90 90 91 92 93 90 87 84 79 80 87 87 89 89 90 91 90 92 76 41 41 46 71 82 82 84 86 84
40 42 80 94 92 91 91 90 91 93 95 96 94 92 90 90 90 92 93 92 90 87 85 83 86 90 88 90 90 91 92 93 93 41 40 50 50 81 80 85 84 84 88
45 48 69 95 93 91 91 91 92 92 94 95 95 94 92 91 92 93 93 93 91 89 87 87 91 89 89 90 91 92 94 93 51 37 39 46 54 82 80 83 87 85 89
50 56 62 89 94 94 93 94 94 93 93 93 94 94 93 94 94 93 93 93 92 91 90 90 91 89 90 91 92 94 95 94 58 40 41 53 77 83 81 83 89 87 90
58 62 62 70 79 97 96 96 95 94 93 93 93 94 94 95 94 93 94 93 92 92 93 93 91 90 91 92 93 96 96 92 48 40 43 46 85 83 81 86 86 91 92
65 67 66 71 76 72 74 97 95 94 94 94 94 94 95 96 94 93 94 93 93 93 94 92 91 91 92 94 95 96 95 93 52 40 45 42 86 82 81 84 88 91 91
67 69 72 79 81 81 71 73 93 95 94 95 91 95 91 58 66 68 74 90 93 93 95 94 92 93 94 94 95 95 95 50 46 46 43 88 86 80 81 86 89 91 91
55 71 73 77 77 82 75 69 69 64 63 63 61 64 58 58 55 52 66 94 94 94 95 94 93 94 91 51 60 87 57 45 43 52 60 89 87 80 81 87 90 91 91
42 50 67 74 75 76 76 61 65 74 65 60 63 62 60 55 57 56 54 62 65 85 58 69 69 60 55 52 56 54 51 59 65 63 69 95 91 80 78 85 89 89 90
45 46 55 61 68 74 69 62 56 56 68 75 70 70 60 58 58 56 49 52 61 55 60 57 53 55 55 56 58 63 60 64 74 56 79 96 96 87 77 83 87 88 89
19 33 47 54 63 66 80 54 54 55 60 69 66 62 66 71 71 54 51 49 54 56 59 58 56 56 59 59 63 64 63 64 70 69 84 97 96 90 87 77 94 85 85
13 15 30 49 57 58 62 66 55 55 53 59 60 52 72 57 71 76 59 64 52 54 56 57 57 59 57 61 65 63 62 70 82 62 62 81 95 96 94 93 96 94 86
13 14 19 37 55 60 61 59 54 48 53 51 51 59 60 60 62 82 81 81 65 52 63 64 62 65 63 63 65 65 66 67 72 66 69 90 78 99 97 96 93 89 87
18 20 22 20 29 44 56 55 53 48 50 48 51 51 62 58 57 79 74 84 78 69 65 67 68 70 68 71 69 64 67 68 71 68 75 93 85 72 93 98 97 96 89
32 40 38 35 30 36 46 51 54 59 54 48 48 52 61 63 60 81 79 79 86 85 77 74 80 74 75 78 69 71 79 70 68 68 76 90 87 82 81 99 99 98 96
41 46 46 45 48 36 35 48 48 51 55 53 51 51 62 62 70 84 85 83 88 90 87 84 86 81 81 81 77 74 76 77 77 67 69 83 89 77 91 93 99 98 99
45 48 50 54 55 49 30 36 46 68 64 52 53 60 61 67 79 87 83 88 89 88 87 86 86 86 92 85 94 95 88 79 80 77 77 74 71 74 82 95 97 96 96
48 50 51 49 52 53 46 32 37 44 50 52 54 62 69 72 80 84 87 89 89 84 89 88 93 96 92 88 94 93 99 96 88 78 86 88 77 62 79 82 96 97 97
46 50 49 49 50 54 58 51 44 44 48 51 57 65 73 76 83 86 85 86 88 80 86 87 92 91 95 96 79 85 98 96 96 90 79 80 75 78 80 74 83 93 96
46 49 49 51 52 52 56 58 57 46 46 46 51 53 72 77 76 83 84 85 83 82 85 83 87 80 80 92 93 77 86 75 73 85 87 79 74 76 82 74 79 78 89
46 50 53 55 55 55 59 66 68 61 49 44 47 59 77 82 80 80 82 82 84 85 83 86 90 80 71 74 84 92 88 82 91 76 66 79 85 76 77 84 88 81 79
45 53 57 60 58 60 66 70 76 77 66 54 49 61 76 83 88 85 80 84 82 85 88 87 83 80 82 73 70 72 78 89 84 84 74 72 67 74 82 90 92 91 94

GFSSE_sfc_rhum_114.txt.gz
RH
50 69 91 90 91 92 93 92 90 91 92 91 92 92 92 92 92 92 92 90 89 87 85 85 86 84 78 76 80 83 84 86 87 89 87 84 81 82 84 87 86 71 86
55 64 92 91 91 92 93 93 91 91 91 91 92 92 92 92 92 93 93 91 88 86 83 85 84 83 80 83 87 88 86 87 88 89 88 82 80 80 80 85 82 82 87
54 63 75 92 91 92 93 93 93 90 90 91 92 92 92 92 92 93 92 90 90 87 85 82 81 81 82 86 90 89 87 88 89 90 88 73 81 80 78 82 85 87 87
46 59 65 93 92 92 94 94 94 90 90 91 92 92 92 92 92 93 92 90 88 88 85 82 81 83 86 91 89 89 88 89 89 90 82 67 63 82 81 84 85 87 88
36 52 62 93 93 92 94 94 94 92 92 92 92 92 92 92 92 93 92 91 90 87 85 79 80 86 90 89 87 88 89 88 90 86 75 74 68 76 82 83 85 87 86
38 48 92 94 94 93 94 95 95 94 94 93 93 93 92 91 92 93 92 91 89 87 85 83 85 89 89 90 89 89 90 89 91 82 76 69 67 83 81 84 84 87 88
46 71 77 93 93 93 94 95 95 94 94 93 93 94 93 92 92 93 93 92 91 89 88 88 88 89 87 88 89 90 90 92 79 80 89 90 86 84 81 84 85 87 88
56 69 79 90 93 93 93 94 96 96 95 94 94 94 94 94 94 94 92 93 92 91 91 90 90 91 88 88 90 91 93 95 76 74 73 94 86 85 81 85 86 88 88
56 72 80 81 86 93 94 94 96 96 96 95 94 94 95 95 95 93 92 93 93 92 92 93 94 90 89 89 91 93 96 96 90 73 85 96 81 83 81 85 87 88 90
63 69 81 81 83 86 89 94 94 95 96 96 96 96 96 96 95 93 93 93 92 93 92 93 94 90 90 91 92 94 96 96 91 73 84 93 87 79 82 86 87 88 89
64 68 73 80 81 82 80 84 94 93 94 96 95 97 99 87 88 86 87 88 93 94 94 95 94 93 92 93 92 95 95 85 71 67 89 87 82 79 82 88 88 88 87
64 68 77 85 81 80 65 82 83 78 82 84 82 91 85 83 80 69 79 89 92 94 95 96 95 94 96 79 91 97 91 77 68 66 93 91 88 72 80 85 86 85 82
29 62 81 89 90 88 76 78 74 74 75 77 78 80 81 73 78 72 75 78 89 95 88 94 96 88 80 76 77 83 80 73 68 87 96 94 90 81 79 82 83 84 89
22 57 70 77 85 90 76 74 72 68 74 74 74 79 78 77 76 76 65 76 82 80 84 81 78 80 79 74 73 84 78 78 72 88 98 96 91 82 78 77 80 84 88
30 52 77 77 80 82 83 70 80 68 71 71 72 74 75 71 78 72 71 71 74 74 78 77 75 74 73 74 76 74 77 77 76 87 96 93 92 89 82 74 74 78 85
23 28 56 62 77 75 81 78 74 74 73 72 74 74 74 69 70 70 70 69 72 71 73 75 70 68 78 81 78 77 77 79 81 81 90 96 92 91 88 81 76 82 84
20 27 41 40 47 76 74 77 77 72 65 74 71 77 77 71 74 71 75 70 68 68 75 78 78 75 78 78 80 83 85 82 82 82 83 93 99 98 92 86 85 86 80
28 41 48 43 55 58 58 74 70 67 71 63 69 71 73 70 68 80 76 80 76 69 73 79 82 81 82 85 86 90 88 87 85 84 84 86 89 96 98 92 90 89 85
33 44 48 58 62 66 64 61 62 68 71 63 63 66 71 68 67 72 73 75 80 82 77 77 79 77 82 85 83 88 89 88 87 84 84 85 90 94 97 96 94 93 92
40 46 50 55 61 65 66 67 59 51 60 64 64 60 70 65 65 72 72 80 78 84 85 83 80 84 83 82 73 75 89 88 88 89 89 88 86 90 94 97 98 98 95
46 47 49 55 60 59 59 61 59 59 52 62 58 66 68 66 68 68 71 83 82 80 76 81 85 88 92 87 90 91 91 88 90 95 94 93 85 83 93 96 99 99 98
46 51 50 48 52 54 52 57 60 61 62 58 58 59 60 67 69 69 72 75 81 82 77 82 90 95 89 91 94 95 96 97 95 92 94 92 93 86 88 94 96 97 98
48 54 48 49 51 54 57 53 54 58 60 59 53 48 60 66 72 71 73 73 81 83 81 78 87 88 88 87 85 93 97 95 95 92 91 87 90 94 87 90 94 96 97
48 53 50 52 52 50 58 61 67 66 66 62 61 58 57 59 56 72 76 76 81 83 83 82 84 83 81 88 90 76 82 81 93 97 91 89 87 90 92 94 94 92 96
45 52 56 54 52 54 60 66 69 72 70 68 68 70 67 64 59 64 73 80 81 84 84 82 81 87 80 80 82 86 83 86 86 90 95 94 91 86 92 92 95 94 92
44 53 57 56 55 58 63 67 72 72 70 74 75 75 72 68 65 68 69 81 87 83 87 84 83 87 80 79 80 80 82 86 86 90 92 90 89 92 89 96 93 94 92

GFSSE_sfc_rhum_117.txt.gz
RH
77 88 93 94 94 93 93 92 93 93 93 92 92 91 91 90 90 91 92 92 91 89 86 84 87 84 80 79 84 83 85 87 87 88 88 85 81 81 85 87 84 78 87
72 84 93 93 94 94 92 91 92 93 93 92 93 93 92 91 90 91 90 91 91 88 84 85 84 81 79 83 86 84 86 89 90 89 86 82 81 80 80 85 84 84 87
74 83 85 93 93 94 93 91 91 92 92 93 93 93 92 91 91 92 91 90 90 88 84 83 82 80 84 87 89 87 86 88 90 90 87 86 84 81 79 81 88 88 87
68 81 88 93 93 94 94 94 92 91 92 93 93 93 91 91 91 92 92 92 90 89 86 80 80 82 87 92 91 90 87 88 90 91 88 77 68 83 80 87 87 86 88
67 71 82 93 93 94 94 95 94 92 93 94 94 93 91 91 91 92 92 90 89 90 87 82 82 86 90 91 88 89 88 88 90 88 92 92 84 80 81 85 87 87 87
63 65 91 94 94 94 95 95 94 94 94 95 94 93 92 91 92 92 91 90 90 89 87 85 86 90 91 90 88 88 89 89 91 95 92 86 86 80 80 86 89 89 89
73 82 86 94 94 94 95 95 95 95 94 94 95 95 93 92 93 92 92 91 91 90 89 88 89 89 88 88 89 89 90 92 86 96 93 87 82 88 78 84 88 88 88
82 87 88 92 94 95 96 96 96 96 94 94 95 95 94 94 94 93 93 92 93 92 91 91 91 91 87 87 89 91 92 94 85 93 91 90 78 85 76 82 88 88 88
85 88 93 94 93 95 96 97 97 96 95 95 95 95 96 95 95 94 93 93 93 93 93 93 94 92 89 88 89 92 95 97 95 93 86 95 78 82 81 83 87 88 87
85 92 93 96 98 98 97 97 97 97 96 96 95 96 96 96 96 94 94 94 94 93 93 93 95 92 90 90 92 92 96 97 95 93 93 93 87 90 77 85 85 87 86
75 94 93 94 95 97 96 93 96 96 97 97 97 96 99 98 97 95 94 94 94 94 94 95 96 94 92 92 92 93 96 98 92 91 97 90 84 78 79 86 86 86 87
80 85 92 94 93 94 82 95 97 94 98 98 98 97 99 98 98 88 93 93 94 95 95 96 95 96 96 97 98 95 99 94 87 93 95 89 82 76 78 86 86 86 84
68 83 95 92 93 92 81 94 94 97 98 98 97 98 98 92 94 89 92 88 97 94 98 98 99 99 97 96 95 99 98 92 93 97 92 88 85 79 74 83 87 85 85
33 88 94 94 92 93 87 90 85 87 91 93 92 96 96 98 96 90 89 92 96 96 97 98 99 98 96 89 87 96 93 92 92 98 97 97 88 87 78 79 85 85 87
24 87 94 93 95 89 86 88 93 94 83 83 85 85 89 88 90 92 85 87 89 93 94 96 96 94 93 89 88 90 90 89 86 98 99 97 92 86 82 78 78 81 84
30 55 51 87 93 92 93 93 96 96 87 82 80 80 84 85 86 86 86 88 87 87 89 88 90 87 85 89 87 83 86 88 87 93 98 98 95 92 89 84 80 80 80
51 52 52 56 60 71 90 96 97 96 90 95 94 85 81 80 86 76 87 85 83 81 87 87 89 87 90 89 88 89 91 89 88 89 96 98 98 97 94 91 86 84 83
53 55 59 57 66 72 72 81 92 94 94 95 87 84 85 79 79 88 80 81 85 82 81 85 84 92 85 91 94 94 94 93 91 91 95 98 98 98 98 93 90 91 89
56 59 61 62 65 66 68 80 79 78 88 90 95 88 81 78 79 77 89 87 89 93 88 82 89 88 93 96 93 96 96 96 94 93 93 95 96 98 98 95 95 93 90
57 55 55 60 62 62 66 68 68 70 68 74 83 94 90 81 77 86 77 83 91 93 96 94 86 95 89 92 82 90 97 96 96 97 94 93 94 96 96 96 97 98 96
55 55 56 60 63 61 63 65 64 70 67 70 80 82 78 88 76 75 90 94 93 82 78 94 96 90 96 93 96 95 96 95 95 97 96 96 96 95 96 97 99 99 98
60 60 59 59 61 62 62 63 67 70 78 68 72 76 82 80 79 86 84 86 88 94 93 92 96 98 96 92 97 97 97 96 97 97 98 95 95 94 96 96 98 98 98
64 65 61 63 63 66 66 65 67 68 69 72 68 66 66 68 72 82 80 78 88 91 96 92 92 96 93 97 88 95 98 97 98 98 98 97 96 97 95 96 98 98 97
65 63 62 63 64 58 66 71 77 81 82 76 75 71 71 68 68 73 78 80 85 85 93 96 94 89 95 94 97 85 89 92 95 97 98 98 97 95 97 98 98 97 97
58 65 68 65 63 65 68 70 76 80 77 74 74 76 75 73 71 68 76 81 82 88 89 92 95 94 94 93 89 86 86 95 91 95 99 99 98 97 96 96 97 98 97
60 65 70 68 68 68 70 72 76 78 77 77 76 78 79 78 76 76 76 82 85 81 91 93 93 93 87 82 82 85 83 81 82 96 96 97 95 98 94 97 98 98 97

GFSSE_sfc_rhum_123.txt.gz
RH
94 94 95 96 96 95 94 93 91 90 91 90 90 91 92 92 93 93 94 94 92 89 86 85 85 82 79 76 81 86 87 88 87 90 89 84 82 83 85 89 89 83 85
88 96 96 96 95 95 94 94 92 90 90 90 90 90 91 92 92 93 94 94 92 89 85 86 84 82 79 80 84 86 88 90 90 90 87 83 82 82 84 89 88 86 88
85 94 94 95 95 95 94 94 93 91 90 90 90 90 91 91 92 94 94 94 92 89 85 84 82 82 84 88 86 86 88 89 90 89 89 94 92 82 83 89 90 88 88
87 95 96 95 94 94 94 95 94 92 91 90 89 90 90 91 92 94 95 95 93 90 84 81 80 82 89 91 90 88 88 89 91 89 94 90 80 79 77 81 87 85 86
86 90 92 96 95 93 93 94 95 94 93 92 90 89 89 90 91 92 94 95 93 91 84 80 80 90 93 93 91 89 88 89 91 90 94 94 91 79 74 81 87 88 88
88 86 94 96 96 94 93 93 94 95 95 95 93 90 89 89 90 91 92 93 92 90 85 84 90 93 94 92 91 89 89 90 92 94 92 91 85 74 77 82 87 90 90
87 90 95 97 96 95 94 93 94 95 96 95 94 92 91 91 92 92 93 94 94 92 91 92 93 94 93 92 90 90 91 92 94 94 94 96 91 78 74 84 84 88 90
86 93 93 94 96 97 96 96 95 96 96 95 95 93 92 92 93 92 93 93 94 96 94 94 94 94 91 90 91 92 93 94 89 93 93 96 90 80 76 84 85 89 90
92 95 96 96 95 97 97 98 97 96 96 96 96 95 94 94 94 92 92 92 94 95 94 94 95 92 90 90 92 92 96 95 96 96 88 94 78 82 79 84 86 87 89
95 95 97 98 98 98 98 98 98 98 97 96 96 97 96 95 94 93 93 92 94 95 94 94 96 94 92 91 93 95 97 97 97 96 95 97 86 84 81 85 87 88 89
95 96 97 98 98 98 98 98 98 98 98 97 97 97 99 96 96 95 93 94 94 96 95 95 96 96 96 94 94 95 97 99 98 98 98 93 85 83 79 86 89 89 90
96 96 98 98 98 98 94 98 99 99 98 98 98 98 98 98 98 95 96 96 95 96 96 96 96 97 97 98 98 96 99 97 98 98 98 93 89 77 76 86 89 90 90
90 96 98 98 98 98 97 99 100 98 96 96 96 96 88 89 99 98 100 98 98 97 99 98 98 99 99 99 99 99 99 98 99 98 96 93 91 79 79 86 88 89 89
28 37 88 98 98 98 98 99 99 100 100 95 92 92 92 95 93 92 93 99 99 99 98 99 98 98 99 98 98 98 98 98 99 99 97 95 94 86 81 82 86 88 89
84 98 96 99 99 99 98 99 99 99 98 98 99 94 93 92 90 91 94 98 99 99 99 98 96 95 96 98 98 97 97 97 97 98 99 95 93 89 84 76 77 82 87
78 82 74 85 94 98 99 98 99 99 98 98 98 96 97 99 99 99 98 99 99 99 99 98 93 93 94 98 98 98 96 97 97 97 98 97 92 91 89 82 82 82 84
77 75 76 78 80 87 91 94 95 99 99 99 99 97 95 97 97 97 98 99 98 98 98 99 99 98 98 98 98 98 97 96 97 97 97 97 96 96 97 92 90 86 86
78 74 75 66 75 76 84 91 92 94 96 95 98 98 97 96 97 96 98 96 95 99 99 98 98 98 97 98 98 98 98 97 97 96 97 97 97 97 99 96 94 92 89
78 73 72 73 74 76 77 84 86 89 92 94 94 96 91 94 93 94 92 96 98 99 99 98 98 97 97 97 97 97 98 97 96 94 96 97 96 97 98 95 94 96 94
74 69 70 70 73 75 79 78 81 79 80 86 92 89 91 89 88 96 94 94 89 96 98 99 98 98 96 96 96 97 98 96 95 96 95 95 96 97 97 97 98 98 96
68 69 72 73 74 73 77 85 89 86 84 82 89 82 88 84 83 86 96 96 93 96 91 96 95 98 99 99 100 99 99 99 98 96 96 97 98 97 97 97 98 98 98
71 70 71 72 73 72 76 83 84 87 90 83 80 79 84 80 83 81 88 91 96 97 96 90 96 96 99 99 98 99 96 98 99 98 98 98 97 97 97 97 97 97 98
75 74 72 70 69 72 74 74 76 81 79 82 76 76 75 75 80 85 87 90 91 94 95 95 99 98 97 99 97 96 100 99 99 99 98 98 98 98 97 97 96 96 96
74 67 68 68 69 66 72 78 86 90 89 85 82 77 75 74 78 84 87 89 92 92 95 95 93 98 94 93 97 96 95 97 99 96 98 98 98 98 96 97 97 97 96
72 71 69 71 70 71 74 77 82 87 85 82 80 81 80 79 78 76 86 92 93 92 93 95 94 93 96 89 89 98 93 96 94 93 94 96 99 95 95 95 96 97 97
73 72 67 72 71 72 77 79 84 89 89 88 85 85 82 79 79 80 82 88 90 90 92 92 94 94 93 95 94 90 89 92 92 92 93 89 93 94 92 96 98 97 97